• In Czech Republic
  • List of Countries
  • For 7 days
  • Water Temperature
  • Satellite Maps
  • Weather Map
  • Weather Widgets
  • user-avatar
    Login

    Hourly Weather Konev

    Today, 17 July, Tuesday

    Time Temperature Precipitation Wind Pressure Humidity
    00:00 +20°C° 0.1 mm 3 mps 732 mmHg 93%
    01:00 +19°C° 0.1 mm 3 mps 732 mmHg 94%
    02:00 +19°C° 0.1 mm 3 mps 732 mmHg 95%
    03:00 +19°C° 0.5 mm 3 mps 732 mmHg 95%
    04:00 +19°C° 0.5 mm 4 mps 732 mmHg 95%
    05:00 +19°C° 0.5 mm 4 mps 732 mmHg 95%
    06:00 +21°C° 0.3 mm 5 mps 731 mmHg 93%
    07:00 +22°C° 0.3 mm 5 mps 731 mmHg 90%
    08:00 +23°C° 0.3 mm 6 mps 731 mmHg 88%
    09:00 +23°C° 0.4 mm 6 mps 731 mmHg 86%
    10:00 +24°C° 0.4 mm 6 mps 731 mmHg 84%
    11:00 +24°C° 0.4 mm 6 mps 731 mmHg 83%
    12:00 +24°C° 0.6 mm 6 mps 730 mmHg 83%
    13:00 +25°C° 0.6 mm 5 mps 730 mmHg 84%
    14:00 +25°C° 0.6 mm 5 mps 730 mmHg 85%
    15:00 +25°C° 0.5 mm 5 mps 730 mmHg 86%
    16:00 +25°C° 0.5 mm 5 mps 730 mmHg 86%
    17:00 +25°C° 0.5 mm 4 mps 730 mmHg 86%
    18:00 +22°C° 0.2 mm 4 mps 730 mmHg 89%
    19:00 +21°C° 0.2 mm 3 mps 730 mmHg 92%
    20:00 +20°C° 0.2 mm 3 mps 730 mmHg 94%
    21:00 +20°C° 0 mm 3 mps 730 mmHg 95%
    22:00 +20°C° 0 mm 3 mps 730 mmHg 96%
    23:00 +19°C° 0 mm 3 mps 730 mmHg 96%

    Tomorrow, 18 July, Wednesday

    Time Temperature Precipitation Wind Pressure Humidity
    00:00 +19°C° 0 mm 3 mps 729 mmHg 97%
    01:00 +19°C° 0 mm 4 mps 729 mmHg 97%
    02:00 +19°C° 0 mm 4 mps 729 mmHg 97%
    03:00 +19°C° 0.1 mm 4 mps 729 mmHg 96%
    04:00 +19°C° 0.1 mm 5 mps 729 mmHg 96%
    05:00 +19°C° 0.1 mm 5 mps 729 mmHg 96%
    06:00 +19°C° 0.2 mm 5 mps 728 mmHg 95%
    07:00 +20°C° 0.2 mm 5 mps 728 mmHg 94%
    08:00 +20°C° 0.2 mm 5 mps 728 mmHg 93%
    09:00 +20°C° 0.1 mm 5 mps 728 mmHg 93%
    10:00 +20°C° 0.1 mm 5 mps 728 mmHg 92%
    11:00 +21°C° 0.1 mm 5 mps 728 mmHg 92%
    12:00 +21°C° 0.2 mm 5 mps 728 mmHg 89%
    13:00 +22°C° 0.2 mm 5 mps 728 mmHg 87%
    14:00 +22°C° 0.2 mm 5 mps 728 mmHg 85%
    15:00 +23°C° 0.3 mm 5 mps 728 mmHg 85%
    16:00 +23°C° 0.3 mm 5 mps 728 mmHg 85%
    17:00 +23°C° 0.3 mm 5 mps 728 mmHg 84%
    18:00 +22°C° 0.1 mm 4 mps 728 mmHg 88%
    19:00 +21°C° 0.1 mm 4 mps 728 mmHg 91%
    20:00 +20°C° 0.1 mm 3 mps 728 mmHg 95%
    21:00 +19°C° 0 mm 3 mps 728 mmHg 96%
    22:00 +19°C° 0 mm 3 mps 728 mmHg 97%
    23:00 +18°C° 0 mm 3 mps 728 mmHg 97%

    Day after tomorrow, 19 July, Thursday

    Time Temperature Precipitation Wind Pressure Humidity
    00:00 +18°C° 0 mm 2 mps 728 mmHg 98%
    01:00 +18°C° 0 mm 2 mps 729 mmHg 98%
    02:00 +17°C° 0 mm 2 mps 729 mmHg 98%
    03:00 +17°C° 0 mm 2 mps 729 mmHg 98%
    04:00 +18°C° 0 mm 2 mps 729 mmHg 98%
    05:00 +19°C° 0 mm 1 mps 729 mmHg 97%
    06:00 +19°C° 0 mm 1 mps 729 mmHg 95%
    07:00 +20°C° 0 mm 1 mps 729 mmHg 93%
    08:00 +20°C° 0 mm 1 mps 730 mmHg 92%
    09:00 +21°C° 0.1 mm 1 mps 730 mmHg 88%
    10:00 +21°C° 0.1 mm 2 mps 730 mmHg 85%
    11:00 +23°C° 0.1 mm 2 mps 730 mmHg 82%
    12:00 +24°C° 0.1 mm 2 mps 730 mmHg 78%
    13:00 +25°C° 0.1 mm 1 mps 730 mmHg 73%
    14:00 +26°C° 0.1 mm 1 mps 730 mmHg 69%
    15:00 +26°C° 0.1 mm 2 mps 730 mmHg 71%
    16:00 +26°C° 0.1 mm 2 mps 730 mmHg 72%
    17:00 +26°C° 0.1 mm 2 mps 730 mmHg 74%
    18:00 +24°C° 0.1 mm 2 mps 730 mmHg 79%
    19:00 +23°C° 0.1 mm 2 mps 730 mmHg 84%
    20:00 +22°C° 0.1 mm 1 mps 730 mmHg 90%
    21:00 +21°C° 0 mm 1 mps 730 mmHg 91%
    22:00 +20°C° 0 mm 2 mps 730 mmHg 92%
    23:00 +19°C° 0 mm 2 mps 730 mmHg 94%

    20 July, Friday

    Time Temperature Precipitation Wind Pressure Humidity
    00:00 +19°C° 0 mm 2 mps 730 mmHg 94%
    01:00 +19°C° 0 mm 2 mps 730 mmHg 95%
    02:00 +18°C° 0 mm 2 mps 731 mmHg 96%
    03:00 +18°C° 0 mm 2 mps 731 mmHg 96%
    04:00 +19°C° 0 mm 2 mps 731 mmHg 96%
    05:00 +19°C° 0 mm 2 mps 731 mmHg 96%
    06:00 +20°C° 0 mm 2 mps 731 mmHg 92%
    07:00 +21°C° 0 mm 2 mps 731 mmHg 88%
    08:00 +24°C° 0 mm 2 mps 732 mmHg 84%
    09:00 +24°C° 0.9 mm 3 mps 732 mmHg 81%
    10:00 +25°C° 0.9 mm 3 mps 732 mmHg 78%
    11:00 +26°C° 0.9 mm 3 mps 732 mmHg 74%
    12:00 +26°C° 0.4 mm 3 mps 732 mmHg 73%
    13:00 +27°C° 0.4 mm 4 mps 732 mmHg 72%
    14:00 +27°C° 0.4 mm 4 mps 732 mmHg 71%
    15:00 +27°C° 0.1 mm 3 mps 732 mmHg 73%
    16:00 +27°C° 0.1 mm 3 mps 732 mmHg 74%
    17:00 +26°C° 0.1 mm 2 mps 732 mmHg 75%
    18:00 +25°C° 0.3 mm 2 mps 732 mmHg 80%
    19:00 +24°C° 0.3 mm 2 mps 732 mmHg 85%
    20:00 +21°C° 0.3 mm 2 mps 732 mmHg 89%
    21:00 +21°C° 0 mm 2 mps 732 mmHg 91%
    22:00 +20°C° 0 mm 2 mps 732 mmHg 93%
    23:00 +20°C° 0 mm 2 mps 732 mmHg 94%

    21 July, Saturday

    Time Temperature Precipitation Wind Pressure Humidity
    00:00 +19°C° 0 mm 2 mps 732 mmHg 95%
    01:00 +19°C° 0 mm 2 mps 732 mmHg 95%
    02:00 +19°C° 0 mm 2 mps 732 mmHg 96%
    03:00 +19°C° 0 mm 2 mps 732 mmHg 96%
    04:00 +19°C° 0 mm 2 mps 732 mmHg 96%
    05:00 +19°C° 0 mm 2 mps 732 mmHg 97%
    06:00 +20°C° 0 mm 2 mps 732 mmHg 93%
    07:00 +22°C° 0 mm 3 mps 733 mmHg 89%
    08:00 +24°C° 0 mm 3 mps 733 mmHg 85%
    09:00 +25°C° 0.2 mm 3 mps 733 mmHg 81%
    10:00 +26°C° 0.2 mm 3 mps 733 mmHg 78%
    11:00 +27°C° 0.2 mm 4 mps 733 mmHg 75%
    12:00 +27°C° 0.7 mm 3 mps 733 mmHg 73%
    13:00 +27°C° 0.7 mm 3 mps 733 mmHg 72%
    14:00 +28°C° 0.7 mm 3 mps 733 mmHg 71%
    15:00 +28°C° 1.1 mm 3 mps 733 mmHg 73%
    16:00 +27°C° 1.1 mm 3 mps 733 mmHg 76%
    17:00 +27°C° 1.1 mm 2 mps 733 mmHg 79%
    18:00 +25°C° 0.3 mm 2 mps 733 mmHg 83%
    19:00 +24°C° 0.3 mm 2 mps 733 mmHg 87%
    20:00 +23°C° 0.3 mm 2 mps 733 mmHg 91%
    21:00 +21°C° 0 mm 2 mps 733 mmHg 92%
    22:00 +21°C° 0 mm 2 mps 733 mmHg 93%
    23:00 +20°C° 0 mm 2 mps 733 mmHg 94%

    22 July, Sunday

    Time Temperature Precipitation Wind Pressure Humidity
    00:00 +20°C° 0 mm 2 mps 733 mmHg 95%
    01:00 +20°C° 0 mm 2 mps 733 mmHg 96%
    02:00 +20°C° 0 mm 1 mps 733 mmHg 96%
    03:00 +20°C° 0 mm 1 mps 734 mmHg 96%
    04:00 +21°C° 0 mm 1 mps 734 mmHg 96%
    05:00 +21°C° 0 mm 1 mps 734 mmHg 96%
    06:00 +22°C° 0 mm 1 mps 734 mmHg 93%
    07:00 +23°C° 0 mm 1 mps 734 mmHg 89%
    08:00 +24°C° 0 mm 2 mps 734 mmHg 85%
    09:00 +25°C° 0.3 mm 2 mps 734 mmHg 81%
    10:00 +26°C° 0.3 mm 2 mps 734 mmHg 76%
    11:00 +27°C° 0.3 mm 2 mps 734 mmHg 72%
    12:00 +28°C° 0.5 mm 2 mps 734 mmHg 70%
    13:00 +28°C° 0.5 mm 2 mps 734 mmHg 69%
    14:00 +28°C° 0.5 mm 3 mps 734 mmHg 67%
    15:00 +28°C° 0.8 mm 3 mps 734 mmHg 70%
    16:00 +28°C° 0.8 mm 2 mps 734 mmHg 73%
    17:00 +27°C° 0.8 mm 2 mps 734 mmHg 76%
    18:00 +26°C° 0.1 mm 2 mps 734 mmHg 79%
    19:00 +24°C° 0.1 mm 1 mps 734 mmHg 82%
    20:00 +23°C° 0.1 mm 1 mps 735 mmHg 86%
    21:00 +22°C° 0.1 mm 1 mps 735 mmHg 87%
    22:00 +22°C° 0.1 mm 1 mps 735 mmHg 88%
    23:00 +21°C° 0.1 mm 1 mps 735 mmHg 90%
    Show more